Flag Weather past 2 weeks in Novorossiysk, Russia

Now
46 °F

Clear.


Feels Like: 44 °F
Forecast: 46 / 55 °F
Wind: 6 mph from Northeast

Location: Anapa / Vitiazevo

Current Time: Oct 31, 2014 at 8:23:08 PM

Latest Report: Oct 31, 2014 at 8:00 PM


Visibility: 10 mi

Pressure: 29.92 "Hg

Humidity: 87%

Dew point: 43 °F

Location of NovorossiyskLocation

Historic Weather in Novorossiysk — Graph

°F

Novorossiysk temperature yesterday

Maximum temperature yesterday: 61 °F (at 12:00 PM)
Minimum temperature yesterday: 39 °F (at 2:00 AM)
Average temperature yesterday: 51 °F

Past Weeks' High & Low Weather Summary

 TemperatureHumidityPressure
High75 °F (Oct 23, 1:30 PM)100% (Oct 17, 10:30 PM)30.33 "Hg (Oct 17, 10:30 PM)
Low25 °F (Oct 26, 7:00 AM)29% (Oct 23, 3:00 PM)29.62 "Hg (Oct 18, 1:00 PM)
Average48 °F77%30.03 "Hg
* Reported Oct 16 8:00 PM — Oct 31 7:00 PM, Novorossiysk, Weather by CustomWeather, © 2014

Note: Actual official high and low records may vary slightly from our data, if they occured in-between our weather recording intervals... More about our weather records

Advertising

Novorossiysk weather history for previous 24 hours

 ConditionsComfort  
Time TempWeatherWind HumidityBarometerVisibility
7:00 PM
Oct 31
46 °FClear.10 mph87%29.92 "Hg10 mi
6:30 PM46 °FClear.10 mph87%29.92 "Hg10 mi
6:00 PM50 °FSunny.8 mph76%29.92 "Hg10 mi
5:30 PM52 °FSunny.3 mph77%29.92 "Hg10 mi
5:00 PM54 °FPassing clouds.3 mph72%29.92 "HgN/A
4:30 PM55 °FSunny.8 mph67%29.89 "Hg10 mi
4:00 PM55 °FSunny.13 mph67%29.89 "Hg10 mi
3:30 PM57 °FSunny.15 mph63%29.89 "Hg10 mi
3:00 PM57 °FSunny.15 mph63%29.89 "Hg10 mi
2:30 PM57 °FSunny.17 mph63%29.89 "Hg10 mi
2:00 PM57 °FSunny.15 mph63%29.89 "Hg10 mi
1:30 PM57 °FSunny.15 mph59%29.89 "Hg10 mi
1:00 PM55 °FSunny.17 mph63%29.89 "Hg10 mi
12:30 PM55 °FSunny.17 mph63%29.89 "Hg10 mi
12:00 PM55 °FSunny.15 mph63%29.89 "Hg10 mi
11:30 AM54 °FSunny.17 mph67%29.92 "Hg10 mi
11:00 AM54 °FSunny.17 mph67%29.92 "Hg10 mi
10:30 AM52 °FSunny.17 mph72%29.92 "Hg10 mi
10:00 AM50 °FSunny.15 mph76%29.92 "Hg10 mi
9:30 AM46 °FSunny.13 mph87%29.92 "Hg10 mi
9:00 AM45 °FSunny.13 mph93%29.92 "Hg10 mi
8:30 AM45 °FSunny.10 mph87%29.92 "Hg5 mi
8:00 AM43 °FPassing clouds.13 mph93%29.92 "Hg4 mi
7:30 AM43 °FPassing clouds.8 mph93%29.92 "Hg5 mi
7:00 AM43 °FPassing clouds.6 mph87%29.92 "Hg4 mi
6:30 AM43 °FClear.3 mph93%29.92 "Hg6 mi
5:00 AM45 °FClear.15 mph87%29.89 "Hg10 mi
4:00 AM45 °FClear.1 mph87%29.92 "Hg10 mi
3:00 AM46 °FPassing clouds.6 mph82%29.92 "HgN/A
2:00 AM46 °FClear.10 mph82%29.92 "Hg10 mi
1:00 AM48 °FClear.15 mph76%29.92 "Hg10 mi
12:00 AM48 °FPassing clouds.3 mph76%29.95 "HgN/A
11:00 PM
Oct 30
50 °FClear.10 mph71%29.95 "Hg10 mi
10:00 PM54 °FClear.13 mph63%29.95 "Hg10 mi
9:00 PM54 °FClear.10 mph63%29.95 "Hg10 mi
8:00 PM54 °FClear.13 mph63%29.98 "Hg10 mi
Weather by CustomWeather, © 2014

See weather overviewHow to use our weather pages